User: anonymous   Login
Location: Glion
(46.4330°N, 6.9246°E)
Time: 23:02:41
(UTC+00:00)
Language:

Cosmos 2322 Rocket - Orbit

View from above orbital plane
View from above orbital plane
View from above satellite
View from above satellite

Ground track
Ground track

The orbit data is extracted from the following two-line orbital elements,

1 23705U 95058B   21125.41820874  .00000180  00000-0  11712-3 0  9993
2 23705  71.0216 293.4217 0014499 292.3456  67.6130 14.15151913317524
Epoch (UTC): 05 May 2021 10:02:13
Eccentricity: 0.0014499
inclination: 71.0216°
perigee height: 831 km
apogee height: 852 km
right ascension of ascending node: 293.4217°
argument of perigee: 292.3456°
revolutions per day: 14.15151913
mean anomaly at epoch: 67.6130°
orbit number at epoch: 31752

The dashed part of the orbit path shows where the satellite is in the earth's shadow,  

DLR